User: anonymous   Login
Location: ????? ????
(37.9717°N, 23.4051°E)
Time: 16:07:45
(UTC+00:00)
Language:

COSMOS 2455 - Orbit

View from above orbital plane
View from above orbital plane
View from above satellite
View from above satellite

Ground track
Ground track

The orbit data is extracted from the following two-line orbital elements,

1 36095U 09063A   24166.60303845  .00000004  00000-0  56876-4 0  9999
2 36095  67.1474 234.3731 0009053 280.0087  79.9976 13.96908511742800
Epoch (UTC): 14 June 2024 14:28:22
Eccentricity: 0.0009053
inclination: 67.1474°
perigee height: 898 km
apogee height: 911 km
right ascension of ascending node: 234.3731°
argument of perigee: 280.0087°
revolutions per day: 13.96908511
mean anomaly at epoch: 79.9976°
orbit number at epoch: 74280

The dashed part of the orbit path shows where the satellite is in the earth's shadow,  

DLR